Inver Grove Heights, MN

3:43 PM CST on January 24, 2017 (GMT -0600)
South Saint Paul Municipal-Fleming

Weather History for KSGS - February, 2013

Change the Weather History Date:

Wednesday, February 27, 2013

  Actual Average (KSTP) Record (KSTP)
Temperature  
Mean Temperature 34 °F -  
Max Temperature 38 °F 29 °F 60 °F (2016)
Min Temperature 29 °F 16 °F -13 °F (2014)
Degree Days  
Heating Degree Days 32    
Moisture  
Dew Point 25 °F    
Average Humidity 72    
Maximum Humidity 79    
Minimum Humidity 60    
Precipitation  
Precipitation 0.00 in - - ()
Sea Level Pressure  
Sea Level Pressure 29.90 in    
Wind  
Wind Speed 9 mph (North)    
Max Wind Speed 20 mph    
Max Gust Speed 26 mph    
Visibility 10 miles    
Events      
Averages and records for this station are not official NWS values.
T = Trace of Precipitation, MM = Missing Value Source: NWS Daily Summary

Daily Weather History Graph

Daily Weather History Graph

Search for Another Location

Airport or City:

Trip Planner

Search our weather history database for the weather conditions in past years. The results will help you decide how hot, cold, wet, or windy it might be!

Date:

Astronomy

Feb. 27, 2013 Rise Set
Actual Time 6:52 AM CST 5:57 PM CST
Civil Twilight 6:23 AM CST 6:26 PM CST
Nautical Twilight 5:49 AM CST 7:00 PM CST
Astronomical Twilight 5:15 AM CST 7:34 PM CST
Moon 8:28 PM CST (2/27) 7:21 AM CST (2/27)
Length of Visible Light 12h 03m
Length of Day
11h 04m
Waning Gibbous, 96% of the Moon is Illuminated
Feb 27
Waning Gibbous
Mar 4
Last Quarter
Mar 11
New
Mar 19
First Quarter
Mar 27
Full

Hourly Weather History & Observations

Time (CST) Temp. Windchill Dew Point Humidity Pressure Visibility Wind Dir Wind Speed Gust Speed Precip Events Conditions
12:12 AM 31.1 °F 24.5 °F 24.4 °F 76% 29.87 in 10.0 mi North 6.9 mph - N/A   Mostly Cloudy
12:32 AM 31.1 °F 25.4 °F 24.6 °F 77% 29.87 in 10.0 mi North 5.8 mph - N/A   Overcast
12:52 AM 31.5 °F 24.9 °F 24.6 °F 76% 29.87 in 10.0 mi North 6.9 mph - N/A   Overcast
1:12 AM 31.5 °F 24.9 °F 24.6 °F 76% 29.87 in 10.0 mi NNE 6.9 mph - N/A   Overcast
1:32 AM 31.8 °F 24.6 °F 24.8 °F 75% 29.87 in 10.0 mi NNE 8.1 mph - N/A   Overcast
1:52 AM 32.0 °F 24.2 °F 24.8 °F 75% 29.87 in 10.0 mi North 9.2 mph - N/A   Overcast
2:12 AM 31.8 °F 23.9 °F 24.8 °F 75% 29.87 in 10.0 mi North 9.2 mph - N/A   Overcast
2:32 AM 31.8 °F 24.6 °F 24.8 °F 75% 29.86 in 10.0 mi North 8.1 mph - N/A   Overcast
2:52 AM 31.8 °F 25.4 °F 24.8 °F 75% 29.86 in 10.0 mi NNE 6.9 mph - N/A   Overcast
3:12 AM 32.0 °F 26.4 °F 24.4 °F 74% 29.86 in 10.0 mi NNE 5.8 mph - N/A   Overcast
3:32 AM 32.0 °F 24.8 °F 24.3 °F 73% 29.86 in 10.0 mi North 8.1 mph - N/A   Overcast
3:52 AM 31.6 °F 25.1 °F 25.2 °F 77% 29.86 in 10.0 mi North 6.9 mph - N/A   Overcast
4:12 AM 31.1 °F 24.5 °F 25.3 °F 79% 29.85 in 10.0 mi North 6.9 mph - N/A   Overcast
4:32 AM 31.1 °F 24.5 °F 25.3 °F 79% 29.85 in 10.0 mi North 6.9 mph - N/A   Overcast
4:52 AM 31.3 °F 23.9 °F 25.3 °F 79% 29.85 in 10.0 mi North 8.1 mph - N/A   Overcast
5:12 AM 31.5 °F 24.2 °F 25.3 °F 78% 29.85 in 10.0 mi North 8.1 mph - N/A   Overcast
5:32 AM 31.6 °F 23.7 °F 25.3 °F 78% 29.85 in 10.0 mi North 9.2 mph - N/A   Overcast
5:52 AM 31.8 °F 24.6 °F 24.8 °F 75% 29.85 in 10.0 mi North 8.1 mph - N/A   Overcast
6:12 AM 32.0 °F 23.6 °F 24.6 °F 74% 29.86 in 10.0 mi North 10.4 mph - N/A   Overcast
6:52 AM 32.0 °F 24.2 °F 24.8 °F 75% 29.87 in 10.0 mi North 9.2 mph - N/A   Overcast
7:12 AM 32.0 °F 25.6 °F 24.8 °F 75% 29.87 in 10.0 mi North 6.9 mph - N/A   Overcast
7:32 AM 31.8 °F 24.6 °F 24.8 °F 75% 29.87 in 10.0 mi North 8.1 mph - N/A   Overcast
7:52 AM 32.0 °F 24.8 °F 25.2 °F 76% 29.88 in 10.0 mi North 8.1 mph - N/A   Overcast
8:12 AM 32.0 °F 23.6 °F 24.8 °F 75% 29.88 in 10.0 mi North 10.4 mph - N/A   Overcast
8:32 AM 32.0 °F 22.5 °F 24.6 °F 74% 29.87 in 10.0 mi North 12.7 mph 17.3 mph N/A   Overcast
9:12 AM 32.4 °F 22.5 °F 24.4 °F 73% 29.87 in 10.0 mi North 13.8 mph 21.9 mph N/A   Mostly Cloudy
9:32 AM 33.1 °F 23.0 °F 24.4 °F 71% 29.86 in 10.0 mi North 15.0 mph 24.2 mph N/A   Mostly Cloudy
9:52 AM 33.8 °F 23.2 °F 24.4 °F 69% 29.86 in 10.0 mi North 17.3 mph 20.7 mph N/A   Scattered Clouds
10:12 AM 34.0 °F 24.6 °F 25.3 °F 71% 29.86 in 10.0 mi North 13.8 mph 20.7 mph N/A   Scattered Clouds
10:32 AM 33.3 °F 24.1 °F 25.3 °F 73% 29.86 in 10.0 mi North 12.7 mph - N/A   Scattered Clouds
10:52 AM 34.5 °F 26.7 °F 25.7 °F 70% 29.86 in 10.0 mi North 10.4 mph 20.7 mph N/A   Scattered Clouds
11:12 AM 34.7 °F 25.5 °F 25.5 °F 69% 29.86 in 10.0 mi North 13.8 mph 19.6 mph N/A   Scattered Clouds
11:32 AM 35.6 °F 26.6 °F 25.2 °F 66% 29.86 in 10.0 mi North 13.8 mph 24.2 mph N/A   Scattered Clouds
11:52 AM 35.8 °F 27.3 °F 24.8 °F 64% 29.86 in 10.0 mi North 12.7 mph 19.6 mph N/A   Scattered Clouds
12:12 PM 35.6 °F 27.1 °F 24.8 °F 65% 29.87 in 10.0 mi North 12.7 mph 20.7 mph N/A   Scattered Clouds
12:32 PM 35.8 °F 25.7 °F 24.4 °F 63% 29.87 in 10.0 mi NNE 17.3 mph 21.9 mph N/A   Scattered Clouds
12:52 PM 36.0 °F 27.1 °F 24.4 °F 63% 29.87 in 10.0 mi North 13.8 mph 21.9 mph N/A   Scattered Clouds
1:12 PM 36.5 °F 27.4 °F 24.8 °F 63% 29.87 in 10.0 mi North 15.0 mph 18.4 mph N/A   Mostly Cloudy
1:32 PM 36.9 °F 27.8 °F 25.0 °F 62% 29.86 in 10.0 mi North 15.0 mph 21.9 mph N/A   Mostly Cloudy
1:52 PM 37.4 °F 29.3 °F 24.8 °F 60% 29.86 in 10.0 mi North 12.7 mph 18.4 mph N/A   Scattered Clouds
2:32 PM 37.9 °F 28.9 °F 25.0 °F 60% 29.86 in 10.0 mi North 16.1 mph 23.0 mph N/A   Scattered Clouds
2:52 PM 38.3 °F 30.1 °F 25.5 °F 60% 29.87 in 10.0 mi NNE 13.8 mph 21.9 mph N/A   Clear
3:12 PM 37.6 °F 29.1 °F 25.5 °F 62% 29.87 in 10.0 mi North 13.8 mph 26.5 mph N/A   Clear
3:32 PM 37.4 °F 27.2 °F 25.3 °F 62% 29.88 in 10.0 mi North 19.6 mph 26.5 mph N/A   Clear
3:52 PM 36.5 °F 27.4 °F 25.0 °F 63% 29.89 in 10.0 mi North 15.0 mph 20.7 mph N/A   Clear
4:12 PM 35.8 °F 26.1 °F 24.6 °F 64% 29.89 in 10.0 mi North 16.1 mph 24.2 mph N/A   Clear
4:32 PM 34.7 °F 25.5 °F 24.8 °F 67% 29.90 in 10.0 mi North 13.8 mph 19.6 mph N/A   Clear
4:52 PM 34.2 °F 24.0 °F 24.8 °F 69% 29.90 in 10.0 mi NNE 16.1 mph 23.0 mph N/A   Clear
5:12 PM 33.8 °F 24.3 °F 25.2 °F 71% 29.91 in 10.0 mi NNE 13.8 mph 18.4 mph N/A   Clear
5:32 PM 33.4 °F 24.3 °F 25.2 °F 72% 29.92 in 10.0 mi NNE 12.7 mph 17.3 mph N/A   Clear
5:52 PM 32.9 °F 23.2 °F 24.8 °F 72% 29.93 in 10.0 mi North 13.8 mph - N/A   Clear
6:12 PM 32.4 °F 23.0 °F 24.8 °F 74% 29.94 in 10.0 mi NNE 12.7 mph 21.9 mph N/A   Clear
6:32 PM 32.0 °F 23.6 °F 24.6 °F 74% 29.95 in 10.0 mi North 10.4 mph - N/A   Clear
6:52 PM 32.0 °F 23.0 °F 24.4 °F 74% 29.96 in 10.0 mi North 11.5 mph 19.6 mph N/A   Clear
7:12 PM 31.8 °F 23.9 °F 23.9 °F 73% 29.97 in 10.0 mi NNE 9.2 mph - N/A   Clear
7:32 PM 31.3 °F 25.6 °F 23.9 °F 74% 29.97 in 10.0 mi North 5.8 mph - N/A   Clear
7:52 PM 31.1 °F 23.7 °F 23.7 °F 74% 29.97 in 10.0 mi North 8.1 mph - N/A   Clear
8:12 PM 31.1 °F 23.7 °F 23.7 °F 74% 29.98 in 10.0 mi North 8.1 mph - N/A   Scattered Clouds
8:32 PM 31.5 °F 24.9 °F 23.7 °F 73% 29.98 in 10.0 mi North 6.9 mph - N/A   Mostly Cloudy
8:52 PM 31.1 °F 24.5 °F 23.5 °F 74% 29.98 in 10.0 mi North 6.9 mph - N/A   Scattered Clouds
9:12 PM 31.1 °F 25.4 °F 23.4 °F 73% 29.99 in 10.0 mi North 5.8 mph - N/A   Clear
9:32 PM 31.1 °F 25.4 °F 23.4 °F 73% 29.99 in 10.0 mi North 5.8 mph - N/A   Clear
9:52 PM 30.9 °F 25.2 °F 23.0 °F 72% 29.99 in 10.0 mi North 5.8 mph - N/A   Clear
10:12 PM 30.2 °F 24.3 °F 23.0 °F 75% 30.00 in 10.0 mi North 5.8 mph - N/A   Clear
10:32 PM 30.2 °F 23.4 °F 23.0 °F 75% 30.00 in 10.0 mi North 6.9 mph - N/A   Clear
10:52 PM 29.7 °F 22.0 °F 23.0 °F 76% 30.01 in 10.0 mi North 8.1 mph - N/A   Clear
11:12 PM 29.7 °F 22.0 °F 23.0 °F 76% 30.01 in 10.0 mi North 8.1 mph - N/A   Clear
11:32 PM 29.5 °F 22.5 °F 22.6 °F 76% 30.02 in 10.0 mi North 6.9 mph - N/A   Clear